Location: Bu�n Treun
(12.1333°N, 108.3167°E)
Time: 00:20:40
(UTC+00:00)

Cosmos-2242 - Pass Details

Date: 13 July 2020
Orbit: 592 x 616 km, 82.5° (Epoch: 03 August)

Event Time Altitude Azimuth Distance (km) Brightness Sun altitude
Rises 12:56:52 0° 7° (N) 2,871 6.8 -23.0°
Reaches altitude 10° 12:59:11 10° 14° (NNE) 1,969 5.8 -23.5°
Enters shadow 13:01:26 27° 34° (NE) 1,199 4.4 -24.0°
